Estación Meteorológica Peña el Pijo (Robertgarden) [ 02/19/20 14:38:45 CET ]

Fecha Hora Presion(HPa) Temp (°C) Humedad % Rocio (°C) Viento ( m/s) Direccion Lluvia 1Hora(mm) Lluvia 24H(mm) LLuvia Total(mm)
2020-Jan-22 01:09:13 1003.500 - - - - N     39.88
2020-Jan-22 02:09:26 1003.600 - - - - N     39.88
2020-Jan-22 03:09:01 353.500 - - - - N     39.88
2020-Jan-22 04:09:10 1003.400 - - - - N     39.88
2020-Jan-22 05:09:15 1003.500 - - - - N     39.88
2020-Jan-22 06:09:14 1004.100 - - - - N     39.88
2020-Jan-22 07:09:21 1004.600 - - - - N     39.88
2020-Jan-22 08:09:21 1004.900 - - - - N     39.88
2020-Jan-22 09:09:06 1005.500 - - - - N     39.88
2020-Jan-22 10:08:51 1005.800 - - - - N     39.88
2020-Jan-22 11:09:01 1005.500 - - - - N     39.88
2020-Jan-22 12:09:42 1004.900 - - - - N     39.88
2020-Jan-22 13:09:38 1004.300 - - - - N     39.88
2020-Jan-22 14:09:14 1003.700 - - - - N     39.88
2020-Jan-22 15:09:11 1003.400 - - - - N     39.88
2020-Jan-22 16:09:13 1003.500 - - - - N     39.88
2020-Jan-22 17:09:18 1004.100 - - - - N     39.88
2020-Jan-22 18:09:00 1004.700 - - - - N     39.88
2020-Jan-22 19:09:06 1005.000 - - - - N     39.88
2020-Jan-22 20:08:40 1005.100 - - - - N     39.88
2020-Jan-22 21:08:55 1005.400 - - - - N     39.88
2020-Jan-22 22:09:06 1005.800 - - - - N     39.88
2020-Jan-22 23:09:04 1005.900 - - - - N     39.88

Temperatura Máxima:    Temperatura Mínima:
Presión Máxima:1005.900 Hpa    Presión Mínima:353.500 Hpa


Volver